Sioux Falls, SD

3:06 AM CDT on September 26, 2016 (GMT -0500)
Foss

Weather History for KFSD - October, 2013

Change the Weather History Date:

Saturday, October 12, 2013

  Actual Average Record
Temperature  
Mean Temperature 48 °F 50 °F  
Max Temperature 62 °F 62 °F 87 °F (1956)
Min Temperature 34 °F 38 °F 15 °F (1917)
Degree Days  
Heating Degree Days 17 16  
Month to date heating degree days 91 161  
Since 1 July heating degree days 191 365  
Cooling Degree Days 0 0  
Month to date cooling degree days 3 0  
Year to date cooling degree days 787 685  
Moisture  
Dew Point 32 °F    
Average Humidity 51    
Maximum Humidity 76    
Minimum Humidity 25    
Precipitation  
Precipitation 0.00 in 0.08 in 1.06 in (1914)
Month to date precipitation 0.25 1.01  
Year to date precipitation 21.44 23.17  
Snow  
Snow 0.00 in 0.00 in 1.00 in (2009)
Month to date snowfall 0.0 0.2  
Since 1 July snowfall 0.0 0.2  
Since 1 September snowfall 0.0 0.2  
Snow Depth 0.00 in    
Sea Level Pressure  
Sea Level Pressure 30.04 in    
Wind  
Wind Speed 10 mph (West)    
Max Wind Speed 24 mph    
Max Gust Speed 33 mph    
Visibility 10 miles    
Events      
T = Trace of Precipitation, MM = Missing Value Source: NWS Daily Summary

Daily Weather History Graph

Daily Weather History Graph

Search for Another Location

Airport or City:

Trip Planner

Search our weather history database for the weather conditions in past years. The results will help you decide how hot, cold, wet, or windy it might be!

Date:

Astronomy

Oct. 12, 2013 Rise Set
Actual Time 7:37 AM CDT 6:48 PM CDT
Civil Twilight 7:09 AM CDT 7:16 PM CDT
Nautical Twilight 6:35 AM CDT 7:50 PM CDT
Astronomical Twilight 6:02 AM CDT 8:23 PM CDT
Moon 3:09 PM CDT (10/12) 12:31 AM CDT (10/12)
Length of Visible Light 12h 07m
Length of Day
11h 10m
First Quarter, 59% of the Moon is Illuminated
Oct 12
First Quarter
Oct 18
Full
Oct 26
Last Quarter
Nov 3
New
Nov 9
First Quarter

Hourly Weather History & Observations

Time (CDT) Temp. Windchill Dew Point Humidity Pressure Visibility Wind Dir Wind Speed Gust Speed Precip Events Conditions
12:56 AM 48.9 °F - 39.0 °F 69% 29.81 in 10.0 mi WSW 8.1 mph - N/A   Clear
1:56 AM 48.9 °F - 39.0 °F 69% 29.83 in 10.0 mi West 9.2 mph - N/A   Clear
2:56 AM 50.0 °F - 39.0 °F 66% 29.85 in 10.0 mi West 10.4 mph 18.4 mph N/A   Mostly Cloudy
3:56 AM 46.9 °F - 37.0 °F 68% 29.88 in 10.0 mi WSW 6.9 mph - N/A   Clear
4:56 AM 46.0 °F 42.5 °F 37.0 °F 71% 29.90 in 10.0 mi WSW 6.9 mph - N/A   Mostly Cloudy
5:56 AM 45.0 °F 39.7 °F 37.0 °F 74% 29.93 in 10.0 mi West 10.4 mph 16.1 mph N/A   Scattered Clouds
6:56 AM 45.0 °F 40.1 °F 35.1 °F 68% 29.95 in 10.0 mi West 9.2 mph - N/A   Scattered Clouds
7:56 AM 46.0 °F 41.0 °F 34.0 °F 63% 29.97 in 10.0 mi West 10.4 mph - N/A   Scattered Clouds
8:56 AM 48.9 °F - 34.0 °F 56% 29.99 in 10.0 mi West 11.5 mph 17.3 mph N/A   Partly Cloudy
9:56 AM 52.0 °F - 34.0 °F 50% 30.01 in 10.0 mi West 15.0 mph 24.2 mph N/A   Partly Cloudy
10:56 AM 55.0 °F - 33.1 °F 43% 30.04 in 10.0 mi West 18.4 mph 27.6 mph N/A   Scattered Clouds
11:56 AM 57.0 °F - 33.1 °F 40% 30.05 in 10.0 mi WNW 21.9 mph 33.4 mph N/A   Scattered Clouds
12:56 PM 59.0 °F - 28.9 °F 32% 30.07 in 10.0 mi WNW 19.6 mph 33.4 mph N/A   Partly Cloudy
1:56 PM 60.1 °F - 27.0 °F 28% 30.07 in 10.0 mi WNW 19.6 mph 29.9 mph N/A   Clear
2:56 PM 61.0 °F - 26.1 °F 26% 30.08 in 10.0 mi WNW 15.0 mph 27.6 mph N/A   Clear
3:56 PM 61.0 °F - 25.0 °F 25% 30.09 in 10.0 mi WNW 12.7 mph 28.8 mph N/A   Clear
4:56 PM 60.1 °F - 25.0 °F 26% 30.12 in 10.0 mi WNW 12.7 mph 23.0 mph N/A   Partly Cloudy
5:56 PM 57.9 °F - 25.0 °F 28% 30.14 in 10.0 mi NW 12.7 mph 19.6 mph N/A   Partly Cloudy
6:56 PM 53.1 °F - 26.1 °F 35% 30.17 in 10.0 mi WNW 5.8 mph - N/A   Partly Cloudy
7:56 PM 46.9 °F - 27.0 °F 46% 30.21 in 10.0 mi West 3.5 mph - N/A   Partly Cloudy
8:56 PM 42.1 °F 38.4 °F 28.0 °F 58% 30.22 in 10.0 mi West 5.8 mph - N/A   Clear
9:56 PM 37.9 °F - 28.9 °F 70% 30.25 in 10.0 mi Calm Calm - N/A   Clear
10:56 PM 39.0 °F 36.8 °F 30.0 °F 70% 30.27 in 10.0 mi West 3.5 mph - N/A   Clear
11:56 PM 37.0 °F - 28.0 °F 70% 30.29 in 10.0 mi Calm Calm - N/A   Clear